Location: Cheching
(60.0667°N, 164.2167°W)
Time: 13:05:46
(UTC+00:00)

NOAA 19 - Pass Details

Date: 22 January 2021
Orbit: 840 x 862 km, 99.2° (Epoch: 01 March)

Event Time Altitude Azimuth Distance (km) Brightness Sun altitude
Rises 17:09:30 0° 20° (NNE) 3,434 8.5 -16.7°
Reaches altitude 10° 17:12:08 10° 30° (NNE) 2,490 7.9 -16.4°
Maximum altitude 17:17:06 34° 94° (E) 1,380 7.0 -15.8°
Drops below altitude 10° 17:22:02 10° 159° (SSE) 2,464 8.1 -15.2°
Sets 17:24:36 0° 168° (SSE) 3,392 8.7 -14.9°
